Location: Clatteringshaws Loch
(55.0508°N, 4.2860°W)
Time: 06:47:13
(UTC+01:00)

Amateur Radio Satellites - All Passes

Search period start: 23 July 2014 06:17
Search period end: 24 July 2014 06:17
Location: Clatteringshaws Loch, 55.0508°N, 4.2860°W

Satellite Date Start Highest point End Downlink Frequencies (MHz)
Time Altitude Azimuth
JAS-1B 23 Jul 06:22:29 06:31:19 39° 311° (NW) 06:39:36 435.800 - 435.900 CW/SSB
ITAMSAT 1 23 Jul 06:29:59 06:31:43 12° 319° (NW) 06:33:27 435.822 SSB
Gurwin Techsat 1B 23 Jul 06:30:04 06:33:48 20° 310° (NW) 06:37:30 435.225 FM
Lituanica SAT-1 23 Jul 06:44:02 06:44:52 11° 208° (SSW) 06:45:42 437.275 MHz beacon
JAS-2 23 Jul 06:52:57 06:58:48 32° 90° (E) 07:04:01 435.800 - 435.900 CW/SSB, 435.910 FM
MaSat-1 23 Jul 06:54:04 06:58:59 40° 40° (NE) 07:04:01 437.345 MHz
KITSAT 1 23 Jul 07:09:26 07:15:23 23° 104° (ESE) 07:21:19 435.175 FM
Uosat F 23 Jul 07:16:40 07:20:59 29° 303° (WNW) 07:25:16 435.120 FM
Sapphire 23 Jul 07:17:26 07:21:45 23° 356° (N) 07:26:05 437.095 MHz 1200 baud AX-25 AFSK
ISS 23 Jul 07:22:45 07:25:50 33° 198° (SSW) 07:28:54 145.800 FM
STRAND 1 23 Jul 07:29:35 07:34:36 51° 260° (W) 07:39:39 ?
Hamsat 23 Jul 07:39:08 07:43:26 85° 105° (ESE) 07:47:44 145.90 MHz
PCSat 23 Jul 07:52:15 07:56:35 24° 5° (N) 08:00:56 145.825 MHz
SO-67 23 Jul 07:58:24 08:01:24 26° 94° (E) 08:04:23 435.3500 MHz FM
AO-7 23 Jul 08:03:06 08:10:41 41° 312° (NW) 08:18:14 29.400 - 29.500 MHz
JAS-1B 23 Jul 08:13:03 08:19:13 19° 336° (NNW) 08:25:17 435.800 - 435.900 CW/SSB
MaSat-1 23 Jul 08:31:28 08:36:40 59° 241° (WSW) 08:41:51 437.345 MHz
HO-68 23 Jul 08:31:43 08:34:23 12° 78° (ENE) 08:37:02 435.675 MHz FM
JAS-2 23 Jul 08:37:48 08:44:26 63° 294° (WNW) 08:50:15 435.800 - 435.900 CW/SSB, 435.910 FM
ISS 23 Jul 09:00:29 09:01:51 12° 217° (SW) 09:03:14 145.800 FM
KITSAT 1 23 Jul 09:01:29 09:09:33 74° 127° (SE) 09:17:39 435.175 FM
Sapphire 23 Jul 09:02:02 09:06:48 30° 21° (NNE) 09:11:33 437.095 MHz 1200 baud AX-25 AFSK
Hamsat 23 Jul 09:16:05 09:18:54 17° 305° (NW) 09:21:42 145.90 MHz
SO-67 23 Jul 09:31:23 09:34:33 32° 293° (WNW) 09:37:41 435.3500 MHz FM
PCSat 23 Jul 09:36:20 09:41:26 39° 31° (NNE) 09:46:30 145.825 MHz
AO-7 23 Jul 09:56:10 10:01:26 19° 337° (NNW) 10:06:42 29.400 - 29.500 MHz
JAS-1B 23 Jul 10:01:30 10:06:08 15° 2° (N) 10:10:48 435.800 - 435.900 CW/SSB
MaSat-1 23 Jul 10:10:45 10:13:04 13° 261° (W) 10:15:23 437.345 MHz
Oscar 11 23 Jul 10:16:41 10:20:05 22° 91° (E) 10:23:28 145.825 FM, Beacon 2401.500 USB
HO-68 23 Jul 10:16:56 10:23:55 52° 100° (E) 10:30:51 435.675 MHz FM
FUNcube-1 23 Jul 10:22:09 10:22:17 10° 83° (E) 10:22:25 145.950 - 145.970 MHz USB
Saudisat 1A 23 Jul 10:23:35 10:27:47 44° 127° (SE) 10:32:01 436.775 MHz
JAS-2 23 Jul 10:23:41 10:28:14 20° 318° (NW) 10:32:27 435.800 - 435.900 CW/SSB, 435.910 FM
Sapphire 23 Jul 10:45:36 10:51:04 74° 45° (NE) 10:56:29 437.095 MHz 1200 baud AX-25 AFSK
KITSAT 1 23 Jul 10:57:37 11:05:30 51° 333° (NNW) 11:13:24 435.175 FM
Oscar 16 23 Jul 11:14:00 11:14:45 10° 40° (NE) 11:15:30 437.025 USB, Beacon 2401.1428
PCSat 23 Jul 11:19:50 11:25:15 70° 233° (SW) 11:30:39 145.825 MHz
JAS-1B 23 Jul 11:46:41 11:53:10 22° 29° (NNE) 11:59:52 435.800 - 435.900 CW/SSB
AO-7 23 Jul 11:47:07 11:51:11 15° 5° (N) 11:55:15 29.400 - 29.500 MHz
Oscar 11 23 Jul 11:52:23 11:56:38 58° 291° (WNW) 12:00:53 145.825 FM, Beacon 2401.500 USB
AO-Echo 23 Jul 11:53:50 11:55:29 11° 41° (NE) 11:57:08 ?
FUNcube-1 23 Jul 11:55:23 11:59:34 69° 103° (ESE) 12:03:43 145.950 - 145.970 MHz USB
Saudisat 1A 23 Jul 12:03:06 12:07:25 48° 328° (NNW) 12:11:44 436.775 MHz
HO-68 23 Jul 12:04:52 12:11:40 48° 302° (WNW) 12:18:26 435.675 MHz FM
Oscar 19 23 Jul 12:21:42 12:25:50 25° 55° (NE) 12:29:58 437.125 CW, 437.150 USB
Sapphire 23 Jul 12:29:30 12:34:05 28° 247° (WSW) 12:38:39 437.095 MHz 1200 baud AX-25 AFSK
TMSAT-1 23 Jul 12:43:46 12:44:28 10° 39° (NE) 12:45:10 436.925 FM
Oscar 16 23 Jul 12:48:08 12:52:50 38° 61° (ENE) 12:57:34 437.025 USB, Beacon 2401.1428
KITSAT 1 23 Jul 12:55:11 13:02:41 38° 1° (N) 13:10:09 435.175 FM
ITAMSAT 1 23 Jul 12:56:05 13:00:20 26° 55° (NE) 13:04:36 435.822 SSB
Gurwin Techsat 1B 23 Jul 13:00:54 13:04:03 16° 47° (NE) 13:07:11 435.225 FM
PCSat 23 Jul 13:04:34 13:07:47 16° 254° (WSW) 13:11:00 145.825 MHz
RS-15 23 Jul 13:09:16 13:14:18 14° 92° (E) 13:19:17 29.354 - 29.394 USB, Beacon 29.352 USB
AO-27 23 Jul 13:13:02 13:17:40 33° 59° (ENE) 13:22:19 436.795 MHz FM
Uribyol 2 23 Jul 13:16:37 13:21:19 36° 60° (ENE) 13:26:02 436.500 FM
AO-Echo 23 Jul 13:28:03 13:32:59 41° 62° (ENE) 13:37:58 ?
Oscar 11 23 Jul 13:30:23 13:32:00 12° 311° (NW) 13:33:37 145.825 FM, Beacon 2401.500 USB
FUNcube-1 23 Jul 13:32:34 13:35:35 20° 303° (WNW) 13:38:36 145.950 - 145.970 MHz USB
JAS-1B 23 Jul 13:32:54 13:41:21 46° 53° (NE) 13:50:32 435.800 - 435.900 CW/SSB
AO-7 23 Jul 13:35:02 13:41:09 23° 32° (NNE) 13:47:16 29.400 - 29.500 MHz
Saudisat 1A 23 Jul 13:44:12 13:47:54 25° 351° (N) 13:51:37 436.775 MHz
HO-68 23 Jul 13:53:25 13:57:52 18° 326° (NW) 14:02:19 435.675 MHz FM
Oscar 19 23 Jul 13:59:40 14:04:46 72° 256° (WSW) 14:09:56 437.125 CW, 437.150 USB
TMSAT-1 23 Jul 14:18:13 14:23:02 37° 61° (ENE) 14:27:53 436.925 FM
Oscar 16 23 Jul 14:27:18 14:32:11 44° 262° (W) 14:37:06 437.025 USB, Beacon 2401.1428
ITAMSAT 1 23 Jul 14:34:13 14:39:26 72° 256° (WSW) 14:44:41 435.822 SSB
Gurwin Techsat 1B 23 Jul 14:37:52 14:43:06 62° 68° (ENE) 14:48:22 435.225 FM
KITSAT 1 23 Jul 14:51:50 14:59:47 54° 29° (NNE) 15:07:41 435.175 FM
AO-27 23 Jul 14:51:54 14:57:01 53° 259° (W) 15:02:10 436.795 MHz FM
Uribyol 2 23 Jul 14:55:40 15:00:43 49° 260° (W) 15:05:46 436.500 FM
AO-Echo 23 Jul 15:06:43 15:11:46 43° 263° (W) 15:16:52 ?
RS-15 23 Jul 15:13:17 15:23:45 52° 118° (ESE) 15:34:06 29.354 - 29.394 USB, Beacon 29.352 USB
Uosat F 23 Jul 15:19:55 15:24:26 34° 59° (ENE) 15:28:57 435.120 FM
JAS-1B 23 Jul 15:22:31 15:31:22 71° 258° (WSW) 15:41:18 435.800 - 435.900 CW/SSB
SO-50 23 Jul 15:22:55 15:27:16 50° 128° (SE) 15:31:44 436.795 FM
AO-7 23 Jul 15:24:19 15:32:24 56° 56° (ENE) 15:40:30 29.400 - 29.500 MHz
Saudisat 1A 23 Jul 15:24:49 15:28:40 28° 16° (NNE) 15:32:31 436.775 MHz
JAS-2 23 Jul 15:30:53 15:34:44 15° 35° (NE) 15:38:26 435.800 - 435.900 CW/SSB, 435.910 FM
Oscar 19 23 Jul 15:42:31 15:45:05 14° 277° (W) 15:47:40 437.125 CW, 437.150 USB
TMSAT-1 23 Jul 15:57:46 16:02:54 48° 261° (W) 16:08:03 436.925 FM
ITAMSAT 1 23 Jul 16:17:10 16:19:54 14° 276° (W) 16:22:39 435.822 SSB
Gurwin Techsat 1B 23 Jul 16:18:59 16:23:29 28° 268° (W) 16:28:01 435.225 FM
UOSAT-12 23 Jul 16:20:12 16:23:41 21° 116° (ESE) 16:27:13 437.025 FM, 437.400 FM
KITSAT 1 23 Jul 16:47:33 16:55:35 68° 235° (SW) 17:03:33 435.175 FM
Uosat F 23 Jul 16:58:11 17:03:06 50° 260° (W) 17:08:02 435.120 FM
SO-50 23 Jul 17:03:35 17:07:57 45° 330° (NNW) 17:12:26 436.795 FM
Saudisat 1A 23 Jul 17:04:31 17:08:57 68° 39° (NE) 17:13:21 436.775 MHz
Hamsat 23 Jul 17:04:38 17:07:58 24° 60° (ENE) 17:11:20 145.90 MHz
JAS-2 23 Jul 17:11:00 17:18:04 40° 57° (ENE) 17:24:42 435.800 - 435.900 CW/SSB, 435.910 FM
JAS-1B 23 Jul 17:16:57 17:23:45 23° 282° (WNW) 17:31:07 435.800 - 435.900 CW/SSB
AO-7 23 Jul 17:17:17 17:25:22 51° 259° (W) 17:33:30 29.400 - 29.500 MHz
OPAL 23 Jul 17:19:56 17:24:49 50° 103° (ESE) 17:29:44 ?
RS-15 23 Jul 17:24:46 17:35:48 73° 326° (NW) 17:46:49 29.354 - 29.394 USB, Beacon 29.352 USB
HO-68 23 Jul 17:25:22 17:27:33 12° 19° (NNE) 17:29:44 435.675 MHz FM
UOSAT-12 23 Jul 17:58:38 18:03:19 88° 317° (NW) 18:08:05 437.025 FM, 437.400 FM
SO-67 23 Jul 18:38:28 18:41:30 29° 65° (ENE) 18:44:33 435.3500 MHz FM
Hamsat 23 Jul 18:39:35 18:43:41 55° 260° (W) 18:47:50 145.90 MHz
KITSAT 1 23 Jul 18:44:07 18:49:35 20° 258° (WSW) 18:55:02 435.175 FM
Saudisat 1A 23 Jul 18:44:31 18:48:15 27° 239° (WSW) 18:51:58 436.775 MHz
SO-50 23 Jul 18:45:38 18:49:31 26° 354° (N) 18:53:28 436.795 FM
JAS-2 23 Jul 18:54:58 19:02:48 69° 258° (WSW) 19:10:10 435.800 - 435.900 CW/SSB, 435.910 FM
OPAL 23 Jul 18:59:06 19:03:36 35° 303° (WNW) 19:08:09 ?
HO-68 23 Jul 19:07:19 19:12:59 26° 44° (NE) 19:18:39 435.675 MHz FM
AO-7 23 Jul 19:16:54 19:20:24 13° 283° (WNW) 19:23:56 29.400 - 29.500 MHz
STRAND 1 23 Jul 19:32:52 19:37:30 33° 95° (E) 19:42:04 ?
RS-15 23 Jul 19:39:15 19:49:53 52° 357° (N) 20:00:38 29.354 - 29.394 USB, Beacon 29.352 USB
UOSAT-12 23 Jul 19:39:45 19:44:01 33° 340° (NNW) 19:48:21 437.025 FM, 437.400 FM
SO-67 23 Jul 20:11:28 20:14:34 30° 265° (W) 20:17:41 435.3500 MHz FM
SO-50 23 Jul 20:27:05 20:31:16 32° 19° (NNE) 20:35:31 436.795 FM
JAS-2 23 Jul 20:43:45 20:49:03 19° 278° (W) 20:54:11 435.800 - 435.900 CW/SSB, 435.910 FM
HO-68 23 Jul 20:52:38 20:59:48 78° 67° (ENE) 21:06:59 435.675 MHz FM
STRAND 1 23 Jul 21:11:57 21:16:55 50° 295° (WNW) 21:21:50 ?
Oscar 11 23 Jul 21:18:25 21:22:28 41° 66° (ENE) 21:26:32 145.825 FM, Beacon 2401.500 USB
UOSAT-12 23 Jul 21:21:21 21:25:21 26° 4° (N) 21:29:22 437.025 FM, 437.400 FM
FUNcube-1 23 Jul 21:23:36 21:26:58 23° 59° (ENE) 21:30:18 145.950 - 145.970 MHz USB
RS-15 23 Jul 21:53:15 22:04:12 67° 29° (NNE) 22:15:22 29.354 - 29.394 USB, Beacon 29.352 USB
SO-50 23 Jul 22:07:44 22:12:27 80° 41° (NE) 22:17:15 436.795 FM
MaSat-1 23 Jul 22:31:46 22:34:23 16° 102° (ESE) 22:37:14 437.345 MHz
HO-68 23 Jul 22:42:06 22:48:14 30° 269° (W) 22:54:24 435.675 MHz FM
STRAND 1 23 Jul 22:52:45 22:55:03 13° 316° (NW) 22:57:20 ?
Oscar 11 23 Jul 22:54:59 22:58:47 30° 266° (W) 23:02:38 145.825 FM, Beacon 2401.500 USB
FUNcube-1 23 Jul 22:58:46 23:03:05 61° 258° (WSW) 23:07:20 145.950 - 145.970 MHz USB
UOSAT-12 23 Jul 23:02:01 23:06:33 42° 28° (NNE) 23:11:04 437.025 FM, 437.400 FM
SO-50 23 Jul 23:48:49 23:52:37 25° 241° (WSW) 23:56:29 436.795 FM
RS-15 24 Jul 00:05:59 00:16:40 62° 237° (WSW) 00:27:41 29.354 - 29.394 USB, Beacon 29.352 USB
MaSat-1 24 Jul 00:06:39 00:10:55 87° 125° (SE) 00:15:52 437.345 MHz
UOSAT-12 24 Jul 00:42:16 00:46:57 60° 230° (SW) 00:51:35 437.025 FM, 437.400 FM
OPAL 24 Jul 01:29:38 01:30:48 11° 37° (NE) 01:31:59 ?
Sapphire 24 Jul 01:37:48 01:40:14 13° 103° (ESE) 01:42:40 437.095 MHz 1200 baud AX-25 AFSK
MaSat-1 24 Jul 01:45:02 01:48:57 28° 329° (NNW) 01:53:17 437.345 MHz
Lituanica SAT-1 24 Jul 01:54:53 01:56:00 13° 154° (SSE) 01:57:07 437.275 MHz beacon
Oscar 19 24 Jul 02:04:17 02:08:30 25° 91° (E) 02:12:42 437.125 CW, 437.150 USB
PCSat 24 Jul 02:09:34 02:13:48 24° 111° (ESE) 02:18:03 145.825 MHz
RS-15 24 Jul 02:19:43 02:26:40 20° 263° (W) 02:33:46 29.354 - 29.394 USB, Beacon 29.352 USB
UOSAT-12 24 Jul 02:24:10 02:26:12 13° 250° (WSW) 02:28:14 437.025 FM, 437.400 FM
Oscar 16 24 Jul 02:31:19 02:36:10 40° 97° (E) 02:41:00 437.025 USB, Beacon 2401.1428
ITAMSAT 1 24 Jul 02:40:14 02:44:28 25° 91° (E) 02:48:40 435.822 SSB
Gurwin Techsat 1B 24 Jul 02:48:01 02:50:55 15° 83° (E) 02:53:48 435.225 FM
AO-27 24 Jul 02:57:38 03:02:21 33° 95° (E) 03:07:00 436.795 MHz FM
JAS-1B 24 Jul 03:00:27 03:09:19 36° 87° (E) 03:17:23 435.800 - 435.900 CW/SSB
Uribyol 2 24 Jul 03:00:57 03:05:44 36° 96° (E) 03:10:28 436.500 FM
OPAL 24 Jul 03:03:56 03:08:30 38° 59° (ENE) 03:13:05 ?
AO-Echo 24 Jul 03:06:34 03:11:30 40° 96° (E) 03:16:16 ?
Sapphire 24 Jul 03:17:18 03:22:36 60° 124° (SE) 03:27:57 437.095 MHz 1200 baud AX-25 AFSK
ISS 24 Jul 03:22:00 03:24:42 23° 153° (SSE) 03:27:25 145.800 FM
MaSat-1 24 Jul 03:24:52 03:27:58 16° 354° (N) 03:31:12 437.345 MHz
Lituanica SAT-1 24 Jul 03:26:26 03:28:24 29° 173° (S) 03:30:22 437.275 MHz beacon
Oscar 19 24 Jul 03:43:12 03:48:19 66° 291° (WNW) 03:53:26 437.125 CW, 437.150 USB
PCSat 24 Jul 03:51:13 03:56:40 85° 312° (NW) 04:02:08 145.825 MHz
TMSAT-1 24 Jul 04:06:00 04:11:02 41° 97° (E) 04:16:01 436.925 FM
Oscar 16 24 Jul 04:10:45 04:15:35 42° 297° (WNW) 04:20:25 437.025 USB, Beacon 2401.1428
ITAMSAT 1 24 Jul 04:19:17 04:24:27 67° 291° (WNW) 04:29:35 435.822 SSB
Gurwin Techsat 1B 24 Jul 04:26:31 04:31:52 73° 104° (ESE) 04:37:10 435.225 FM
AO-27 24 Jul 04:37:03 04:42:05 50° 295° (WNW) 04:47:05 436.795 MHz FM
Uribyol 2 24 Jul 04:40:25 04:45:22 46° 296° (WNW) 04:50:16 436.500 FM
OPAL 24 Jul 04:42:42 04:47:24 42° 259° (W) 04:52:08 ?
AO-Echo 24 Jul 04:45:25 04:50:20 42° 297° (WNW) 04:55:05 ?
JAS-1B 24 Jul 04:50:50 05:00:47 81° 291° (WNW) 05:09:45 435.800 - 435.900 CW/SSB
ISS 24 Jul 04:57:45 05:00:59 45° 173° (S) 05:04:14 145.800 FM
Uosat F 24 Jul 04:58:38 05:03:05 30° 94° (E) 05:07:30 435.120 FM
Lituanica SAT-1 24 Jul 04:59:02 05:00:56 25° 192° (SSW) 05:02:49 437.275 MHz beacon
Sapphire 24 Jul 05:01:09 05:06:18 43° 327° (NNW) 05:11:29 437.095 MHz 1200 baud AX-25 AFSK
MaSat-1 24 Jul 05:03:33 05:07:12 19° 18° (NNE) 05:10:58 437.345 MHz
AO-7 24 Jul 05:10:10 05:17:55 40° 96° (E) 05:25:35 29.400 - 29.500 MHz
STRAND 1 24 Jul 05:18:33 05:22:24 22° 52° (NE) 05:26:14 ?
Oscar 19 24 Jul 05:23:43 05:26:50 16° 312° (NW) 05:29:57 437.125 CW, 437.150 USB
PCSat 24 Jul 05:35:56 05:40:47 32° 336° (NNW) 05:45:40 145.825 MHz
TMSAT-1 24 Jul 05:46:02 05:51:01 42° 297° (WNW) 05:55:58 436.925 FM
Oscar 16 24 Jul 05:52:15 05:53:45 11° 319° (NW) 05:55:15 437.025 USB, Beacon 2401.1428
JAS-2 24 Jul 05:59:24 06:02:44 14° 77° (ENE) 06:05:53 435.800 - 435.900 CW/SSB, 435.910 FM
ITAMSAT 1 24 Jul 05:59:54 06:03:07 17° 313° (NW) 06:06:19 435.822 SSB
Gurwin Techsat 1B 24 Jul 06:07:05 06:11:26 26° 305° (NW) 06:15:45 435.225 FM
